User: anonymous   Login
Location: Unspecified
(0.0000°N, 0.0000°E)
Time: 06:10:54
(UTC+00:00)
Language:

ISIS 1 - Orbit

View from above orbital plane
View from above orbital plane
View from above satellite
View from above satellite

Ground track
Ground track

The orbit data is extracted from the following two-line orbital elements,

1  3669U 69009A   17296.53739083 +.00000049 +00000-0 +19743-4 0  9992
2  3669 088.4258 134.1351 1712424 137.5607 237.1459 11.29442646003114
Epoch (UTC): 23 October 2017 12:53:50
Eccentricity: 0.1712424
inclination: 88.4258°
perigee height: 576 km
apogee height: 3450 km
right ascension of ascending node: 134.1351°
argument of perigee: 137.5607°
revolutions per day: 11.29442646
mean anomaly at epoch: 237.1459°
orbit number at epoch: 311

The dashed part of the orbit path shows where the satellite is in the earth's shadow,  

DLR